Tracking 29892 objects as of 21-Nov-2024
HD Live streaming from Space Station
objects crossing your sky now

NOAA 12 DEB

Track NOAA 12 DEB now!
10-day predictions


NORAD ID: 37831
Int'l Code: 1991-032D
Perigee: 684.2 km
Apogee: 691.9 km
Inclination: 98.2 °
Period: 98.4 minutes
Semi major axis: 7059 km
RCS: 0.2569 m2 (medium)
Launch date: May 14, 1991
Source: United States (US)
Launch site: AIR FORCE WESTERN TEST RANGE (AFWTR)

Note: This is SATELLITE DEBRIS
Your satellite tracking list
Your tracking list is empty




NASA's NSSDC Master Catalog

Two Line Element Set (TLE):
1 37831U 91032D   24325.12799569  .00021868  00000-0  41870-2 0  9998
2 37831  98.1987   9.9049 0005486 333.9227  42.3845 14.63802795690926
Source of the keplerian elements: AFSPC